Skip Page Navigation
NASA JPL Caltech
NASA Logo - Jet Propulsion Laboratory + View the NASA Portal
+ Near-Earth Object (NEO) Program
Search JPL
JPL Home Earth Solar System Stars & Galaxies Technology
JPL Solar System Dynamics
BODIES ORBITS EPHEMERIDES TOOLS PHYSICAL DATA DISCOVERY FAQ SITE MAP
JPL Small-Body Database Browser
Search: [ help ]  
30417 Staudt (2000 LF)
Classification: Main-belt Asteroid          SPK-ID: 2030417
Ephemeris | Orbit Diagram | Orbital Elements | Physical Parameters | Discovery Circumstances | Close-Approach Data ]

[ show orbit diagram ]
Orbital Elements at Epoch 2457000.5 (2014-Dec-09.0) TDB
Reference: JPL 6 (heliocentric ecliptic J2000)
 Element Value Uncertainty (1-sigma)   Units 
e .2047422354799035 6.396e-08  
a 2.659188138839717 2.8005e-08 AU
q 2.114740014732029 1.8208e-07 AU
i 3.607426582352466 5.7174e-06 deg
node 104.2725616125219 0.00011096 deg
peri 213.7748003470988 0.00011216 deg
M 74.57961003320709 1.948e-05 deg
tp 2456672.374765059142
(2014-Jan-14.87476506)
8.2977e-05 JED
period 1583.879086068066
4.34
2.5021e-05
6.85e-08
d
yr
n .2272900773591813 3.5905e-09 deg/d
Q 3.203636262947405 3.3739e-08 AU
  Orbit Determination Parameters
   # obs. used (total)      724  
   data-arc span      7510 days (20.56 yr)  
   first obs. used      1994-01-04  
   last obs. used      2014-07-28  
   planetary ephem.      DE431  
   SB-pert. ephem.      SB431-BIG16  
   condition code      0  
   fit RMS      .56998  
   data source      ORB  
   producer      Otto Matic  
   solution date      2014-Aug-13 14:49:04  

Additional Information
 Earth MOID = 1.10342 AU 
 T_jup = 3.353 
[ show covariance matrix ]

Ephemeris | Orbit Diagram | Orbital Elements | Physical Parameters | Discovery Circumstances | Close-Approach Data ]

Physical Parameter Table
Parameter Symbol Value Units Sigma Reference Notes
absolute magnitude H 14.4 mag n/a PDS3 (MPO 16604)  

30417 Staudt           Discovered 2000 June 1 by P. G. Comba at Prescott.
Karl Georg Christian von Staudt (1798-1867), a professor at the University of Erlangen, gave the first fully rigorous treatment of projective geometry, without making use of distances, perpendiculars and angles.
NOTE: some special characters may not display properly (any characters within {} are an attempt to place the proper accent above a character)
Reference: 20020328/MPCPages.arcLast Updated: 2003-10-02

[ show close-approach data ]
Alternate Designations
 2000 LF = 1995 DV10 
Ephemeris | Orbit Diagram | Orbital Elements | Physical Parameters | Discovery Circumstances | Close-Approach Data ]
ABOUT SSD CREDITS/AWARDS PRIVACY/COPYRIGHT GLOSSARY LINKS
FirstGov 2014-Sep-17 01:30 UT
(server date/time)  
NASA Home Page
Site Manager:   Donald K. Yeomans
Webmaster  Alan B. Chamberlin